Terre Haute, IN

3:12 PM EST on January 19, 2017 (GMT -0500)
Terre Haute International-Hulman

Weather History for KHUF - May, 2013

Change the Weather History Date:

Sunday, May 12, 2013

  Actual Average Record
Temperature  
Mean Temperature 49 °F 62 °F  
Max Temperature 58 °F 73 °F 89 °F (1982)
Min Temperature 39 °F 51 °F 32 °F (1960)
Degree Days  
Heating Degree Days 16 5  
Month to date heating degree days 53 73  
Since 1 July heating degree days 5236 5293  
Cooling Degree Days 0 2  
Month to date cooling degree days 6 14  
Year to date cooling degree days 13 29  
Moisture  
Dew Point 30 °F    
Average Humidity 53    
Maximum Humidity 79    
Minimum Humidity 27    
Precipitation  
Precipitation 0.00 in 0.21 in 5.58 in (2002)
Month to date precipitation 2.27 2.73  
Year to date precipitation 18.93 14.54  
Sea Level Pressure  
Sea Level Pressure 30.13 in    
Wind  
Wind Speed 9 mph (WNW)    
Max Wind Speed 18 mph    
Max Gust Speed 26 mph    
Visibility 10 miles    
Events      
T = Trace of Precipitation, MM = Missing Value Source: NWS Daily Summary

Daily Weather History Graph

Daily Weather History Graph

Search for Another Location

Airport or City:

Trip Planner

Search our weather history database for the weather conditions in past years. The results will help you decide how hot, cold, wet, or windy it might be!

Date:

Astronomy

May. 12, 2013 Rise Set
Actual Time 6:37 AM EDT 8:53 PM EDT
Civil Twilight 6:07 AM EDT 9:23 PM EDT
Nautical Twilight 5:30 AM EDT 10:01 PM EDT
Astronomical Twilight 4:50 AM EDT 10:41 PM EDT
Moon 8:32 AM EDT (5/12) 11:20 PM EDT (5/12)
Length of Visible Light 15h 16m
Length of Day
14h 15m
Waxing Crescent, 6% of the Moon is Illuminated
May 12
Waxing Crescent
May 18
First Quarter
May 25
Full
May 31
Last Quarter
Jun 8
New

Hourly Weather History & Observations

Time (EDT) Temp. Windchill Dew Point Humidity Pressure Visibility Wind Dir Wind Speed Gust Speed Precip Events Conditions
12:53 AM 48.0 °F - 28.9 °F 48% 30.09 in 10.0 mi NW 8.1 mph - N/A   Clear
1:53 AM 46.0 °F 42.5 °F 28.9 °F 51% 30.10 in 10.0 mi NW 6.9 mph - N/A   Clear
2:53 AM 43.0 °F 39.5 °F 32.0 °F 65% 30.09 in 10.0 mi WNW 5.8 mph - N/A   Clear
3:53 AM 39.9 °F 36.7 °F 33.1 °F 77% 30.09 in 10.0 mi West 4.6 mph - N/A   Clear
4:53 AM 39.0 °F 36.8 °F 33.1 °F 79% 30.09 in 10.0 mi WSW 3.5 mph - N/A   Clear
5:53 AM 42.1 °F 37.1 °F 30.9 °F 65% 30.10 in 10.0 mi WNW 8.1 mph - N/A   Clear
6:53 AM 41.0 °F 38.0 °F 30.0 °F 65% 30.11 in 10.0 mi NW 4.6 mph - N/A   Clear
7:53 AM 43.0 °F 38.8 °F 30.9 °F 62% 30.13 in 10.0 mi NW 6.9 mph - N/A   Clear
8:53 AM 45.0 °F 39.7 °F 28.9 °F 53% 30.15 in 10.0 mi NW 10.4 mph - N/A   Clear
9:53 AM 48.0 °F - 28.9 °F 48% 30.15 in 10.0 mi NW 11.5 mph - N/A   Clear
10:53 AM 50.0 °F - 28.9 °F 44% 30.16 in 10.0 mi WNW 15.0 mph 20.7 mph N/A   Partly Cloudy
11:53 AM 51.1 °F - 28.0 °F 41% 30.17 in 10.0 mi WNW 15.0 mph 23.0 mph N/A   Clear
12:53 PM 54.0 °F - 30.0 °F 40% 30.17 in 10.0 mi WNW 12.7 mph 19.6 mph N/A   Partly Cloudy
1:53 PM 55.0 °F - 30.0 °F 38% 30.17 in 10.0 mi WNW 15.0 mph 21.9 mph N/A   Clear
2:53 PM 55.0 °F - 28.0 °F 35% 30.17 in 10.0 mi NW 10.4 mph 24.2 mph N/A   Scattered Clouds
3:53 PM 55.9 °F - 30.0 °F 37% 30.15 in 10.0 mi West 9.2 mph 21.9 mph N/A   Clear
4:53 PM 57.0 °F - 28.9 °F 34% 30.14 in 10.0 mi NW 9.2 mph - N/A   Clear
5:53 PM 55.0 °F - 27.0 °F 34% 30.13 in 10.0 mi WNW 13.8 mph 18.4 mph N/A   Scattered Clouds
6:53 PM 57.0 °F - 26.1 °F 30% 30.12 in 10.0 mi West 10.4 mph - N/A   Partly Cloudy
7:53 PM 55.0 °F - 23.0 °F 29% 30.12 in 10.0 mi NW 11.5 mph - N/A   Clear
8:53 PM 52.0 °F - 27.0 °F 38% 30.13 in 10.0 mi WNW 4.6 mph - N/A   Clear
9:53 PM 48.0 °F - 30.9 °F 52% 30.15 in 10.0 mi West 6.9 mph - N/A   Clear
10:53 PM 46.0 °F 43.9 °F 34.0 °F 63% 30.16 in 10.0 mi West 4.6 mph - N/A   Clear
11:53 PM 44.1 °F 42.5 °F 34.0 °F 68% 30.16 in 10.0 mi WSW 3.5 mph - N/A   Clear